Monclova, OH

12:37 PM EST on February 14, 2016 (GMT -0500)
Toledo Express

Weather History for KTOL - December, 2013

Change the Weather History Date:

Wednesday, December 4, 2013

  Actual Average Record
Temperature  
Mean Temperature 47 °F 34 °F  
Max Temperature 59 °F 40 °F 64 °F (1998)
Min Temperature 35 °F 27 °F -1 °F (1966)
Degree Days  
Heating Degree Days 18 32  
Month to date heating degree days 103 124  
Since 1 July heating degree days 1451 1357  
Cooling Degree Days 0 0  
Month to date cooling degree days 0 0  
Year to date cooling degree days 793 793  
Moisture  
Dew Point 45 °F    
Average Humidity 88    
Maximum Humidity 100    
Minimum Humidity 75    
Precipitation  
Precipitation 0.00 in 0.09 in 0.60 in (2011)
Month to date precipitation T 0.37  
Year to date precipitation 33.76 31.93  
Snow  
Snow 0.00 in 0.20 in - ()
Month to date snowfall T 0.7  
Since 1 July snowfall 0.5 2.8  
Snow Depth 0.00 in    
Sea Level Pressure  
Sea Level Pressure 29.79 in    
Wind  
Wind Speed 5 mph (SE)    
Max Wind Speed 14 mph    
Max Gust Speed 23 mph    
Visibility 9 miles    
Events      
T = Trace of Precipitation, MM = Missing Value Source: NWS Daily Summary

Daily Weather History Graph

Daily Weather History Graph

Search for Another Location

Airport or City:

Trip Planner

Search our weather history database for the weather conditions in past years. The results will help you decide how hot, cold, wet, or windy it might be!

Date:

Astronomy

Dec. 04, 2013 Rise Set
Actual Time 7:45 AM EST 5:05 PM EST
Civil Twilight 7:14 AM EST 5:36 PM EST
Nautical Twilight 6:40 AM EST 6:10 PM EST
Astronomical Twilight 6:06 AM EST 6:44 PM EST
Moon 9:12 AM EST (12/4) 7:15 PM EST (12/4)
Length of Visible Light 10h 21m
Length of Day
9h 19m
Waxing Crescent, 4% of the Moon is Illuminated
Dec 4
Waxing Crescent
Dec 9
First Quarter
Dec 17
Full
Dec 25
Last Quarter
Jan 1
New

Hourly Weather History & Observations

Time (EST) Temp. Windchill Dew Point Humidity Pressure Visibility Wind Dir Wind Speed Gust Speed Precip Events Conditions
12:52 AM 37.9 °F - 36.0 °F 93% 29.86 in 7.0 mi Calm Calm - 0.00 in   Overcast
1:52 AM 36.0 °F 33.3 °F 35.1 °F 97% 29.84 in 6.0 mi East 3.5 mph - N/A   Mostly Cloudy
2:52 AM 37.0 °F - 36.0 °F 96% 29.84 in 5.0 mi Calm Calm - N/A   Mostly Cloudy
3:52 AM 37.0 °F - 36.0 °F 96% 29.86 in 5.0 mi Calm Calm - N/A   Overcast
4:52 AM 37.9 °F 35.5 °F 37.0 °F 97% 29.86 in 5.0 mi East 3.5 mph - N/A   Overcast
5:52 AM 39.9 °F - 37.9 °F 93% 29.87 in 7.0 mi Calm Calm - N/A   Overcast
6:52 AM 41.0 °F - 39.0 °F 93% 29.88 in 7.0 mi Calm Calm - N/A   Overcast
7:52 AM 41.0 °F - 39.9 °F 96% 29.88 in 6.0 mi Calm Calm - N/A   Overcast
8:52 AM 43.0 °F 41.3 °F 41.0 °F 93% 29.89 in 6.0 mi East 3.5 mph - N/A   Overcast
9:52 AM 46.0 °F 43.9 °F 43.0 °F 89% 29.89 in 8.0 mi SE 4.6 mph - N/A   Overcast
10:52 AM 50.0 °F - 45.0 °F 83% 29.87 in 10.0 mi SE 4.6 mph - N/A   Overcast
11:52 AM 52.0 °F - 46.9 °F 83% 29.83 in 10.0 mi SE 8.1 mph - N/A   Clear
12:11 PM 51.8 °F - 46.4 °F 82% 29.82 in 10.0 mi SSE 6.9 mph - N/A   Mostly Cloudy
12:52 PM 53.1 °F - 46.9 °F 80% 29.81 in 10.0 mi SSE 5.8 mph - N/A   Mostly Cloudy
1:52 PM 55.0 °F - 48.9 °F 80% 29.77 in 10.0 mi SE 4.6 mph - N/A   Overcast
2:00 PM 55.4 °F - 48.2 °F 77% 29.75 in 10.0 mi Variable 5.8 mph - N/A   Overcast
2:52 PM 55.9 °F - 50.0 °F 80% 29.76 in 10.0 mi Variable 5.8 mph - N/A   Overcast
3:23 PM 55.4 °F - 50.0 °F 82% 29.74 in 10.0 mi ESE 4.6 mph - N/A   Mostly Cloudy
3:30 PM 55.4 °F - 50.0 °F 82% 29.74 in 10.0 mi ESE 6.9 mph - N/A   Mostly Cloudy
3:52 PM 55.9 °F - 50.0 °F 80% 29.74 in 10.0 mi SE 5.8 mph - N/A   Overcast
4:52 PM 55.9 °F - 50.0 °F 80% 29.72 in 10.0 mi SE 6.9 mph - N/A   Overcast
5:52 PM 55.9 °F - 50.0 °F 80% 29.72 in 10.0 mi SSE 6.9 mph - N/A   Overcast
6:44 PM 55.4 °F - 50.0 °F 82% 29.71 in 10.0 mi SSE 8.1 mph 16.1 mph N/A   Overcast
6:52 PM 55.9 °F - 50.0 °F 80% 29.71 in 10.0 mi SSE 6.9 mph - N/A   Overcast
7:52 PM 55.9 °F - 50.0 °F 80% 29.70 in 10.0 mi SSE 8.1 mph 16.1 mph N/A   Overcast
8:52 PM 57.0 °F - 51.1 °F 81% 29.69 in 10.0 mi South 10.4 mph 16.1 mph N/A   Overcast
9:52 PM 59.0 °F - 52.0 °F 78% 29.67 in 10.0 mi South 11.5 mph 18.4 mph N/A   Overcast
10:52 PM 57.9 °F - 52.0 °F 81% 29.66 in 10.0 mi South 8.1 mph 17.3 mph N/A   Overcast
11:52 PM 57.0 °F - 52.0 °F 83% 29.67 in 10.0 mi South 11.5 mph - N/A   Overcast